SCP
0 0 0 0 0 0 0 0 0 0 0 0 0 0 0 0 0 0 0 0 0 0 0 0 0 0 0 1 1 1 1 1 1 0 0 1 1 1 1 0 0 0 0 0
0 0 0 0 0 0 0 0 0 0 0 0 0 0 0 0 0 0 0 0 0 0 0 0 0 0 0 1 1 1 1 1 1 0 0 0 1 1 1 0 0 0 0 0
0 0 0 0 0 0 0 0 0 0 0 0 0 0 0 0 0 0 0 0 0 0 0 0 0 0 0 0 1 1 1 1 1 0 0 0 0 0 1 1 0 0 0 0
0 0 0 0 0 0 0 0 0 0 0 0 0 0 0 0 0 0 0 0 0 0 0 0 0 0 0 1 1 1 1 1 1 0 0 0 0 0 0 0 0 0 0 0
0 0 0 0 0 0 0 0 0 0 0 0 0 0 0 0 0 0 0 0 0 0 0 0 0 0 0 1 1 0 1 1 0 0 0 0 0 0 0 0 0 0 0 0
0 0 0 0 0 0 0 0 0 0 0 0 0 0 0 0 0 0 0 0 0 0 0 0 0 0 1 1 0 0 0 1 0 0 0 0 0 0 0 0 0 0 0 0
0 0 0 0 0 0 0 0 0 0 0 0 0 0 0 0 0 0 0 0 0 0 0 0 0 1 1 1 0 0 0 0 0 0 0 0 0 0 0 0 0 0 0 0
0 0 0 0 0 0 0 0 0 0 0 0 0 0 0 0 0 0 0 0 0 0 0 0 0 0 1 0 0 0 0 0 0 0 0 0 0 0 0 0 0 0 0 0
0 0 0 0 0 0 0 0 0 0 0 0 0 0 0 0 0 0 0 0 0 0 0 0 0 0 0 0 0 0 0 0 0 0 0 0 0 0 0 0 0 0 0 0
0 0 0 0 0 0 0 0 0 0 0 0 0 0 0 0 0 0 0 0 0 0 0 0 0 0 0 0 0 0 0 0 0 0 0 0 0 0 0 0 0 0 0 0
0 0 0 0 0 0 0 0 0 0 0 0 0 0 0 0 0 0 0 0 0 0 0 0 0 0 0 0 0 0 0 0 0 0 0 0 0 0 0 0 0 0 0 0
0 0 0 0 0 0 0 0 0 0 0 0 0 0 0 0 0 0 0 0 0 0 0 0 0 0 0 0 0 0 0 0 0 0 0 0 0 0 0 0 0 0 0 0
0 0 0 0 0 0 0 0 0 0 0 0 0 0 0 0 0 0 0 0 0 0 0 0 0 0 0 0 0 0 0 0 0 0 0 0 0 0 0 0 0 0 0 0
0 0 0 0 0 0 0 0 0 0 0 0 0 0 0 0 0 0 0 0 0 0 0 0 0 0 0 0 0 0 0 0 0 0 0 0 0 0 0 0 0 0 0 0
0 0 0 0 0 0 0 0 0 0 0 0 0 0 0 0 0 0 0 0 0 0 0 0 0 0 0 0 0 0 0 0 0 0 0 0 0 0 0 0 0 0 0 0
0 0 0 0 0 0 0 0 0 0 0 0 0 0 0 0 0 0 0 0 0 0 0 0 0 0 0 0 0 0 0 0 0 0 0 0 0 0 0 0 0 0 0 0
0 0 0 0 0 0 0 0 0 0 0 0 0 0 0 0 0 0 0 0 0 0 0 0 0 0 0 0 0 0 0 0 0 0 0 0 0 0 0 0 0 0 0 0
0 0 0 0 0 0 0 0 0 0 0 0 0 0 0 0 0 0 0 0 0 0 0 0 0 0 0 0 0 0 0 0 0 0 0 0 0 0 0 0 0 0 0 0
0 0 0 0 0 0 0 0 0 0 0 0 0 0 0 0 0 0 0 0 0 0 0 0 0 0 0 0 0 0 0 0 0 0 0 0 0 0 0 0 0 0 0 0
0 0 0 0 0 0 0 0 0 0 0 0 0 0 0 0 0 0 0 0 0 0 0 0 0 0 0 0 0 0 0 0 0 0 0 0 0 0 0 0 0 0 0 0
0 0 0 0 0 0 0 0 0 0 0 0 0 0 0 0 0 0 0 0 0 0 0 0 0 0 0 0 0 0 0 0 0 0 0 0 0 0 0 0 0 0 0 0
0 0 0 0 0 0 0 0 0 0 0 0 0 0 0 0 0 0 0 0 0 0 0 0 0 0 0 0 0 0 0 0 0 0 0 0 0 0 0 0 0 0 0 0
0 0 0 0 0 0 0 0 0 0 0 0 0 0 0 0 0 0 0 0 0 0 0 0 0 0 0 0 0 0 0 0 0 0 0 0 0 0 0 0 0 0 0 0
0 0 0 0 0 0 0 0 0 0 0 0 0 0 0 0 0 0 0 0 0 0 0 0 0 0 0 0 0 0 0 0 0 0 0 0 0 0 0 0 0 0 0 0
0 0 0 0 0 0 0 0 0 0 0 0 0 0 0 0 0 0 0 0 0 0 0 0 0 0 0 0 0 0 0 0 0 0 0 0 0 0 0 0 0 0 0 0
0 0 0 0 0 0 0 0 0 0 0 0 0 0 0 0 0 0 0 0 0 0 0 0 0 0 0 0 0 0 0 0 0 0 0 0 0 0 0 0 0 0 0 0
Wind_Speed
4 4 6 6 7 6 6 7 7 5 2 3 8 10 8 6 6 5 4 3 3 2 2 3 3 3 2 2 2 3 2 2 2 2 2 2 1 1 0 1 2 2 2 2
3 8 7 4 5 7 8 8 8 4 1 4 7 11 9 7 8 7 5 3 2 2 2 3 3 2 2 2 2 2 2 2 2 2 2 1 1 1 1 1 1 1 1 2
8 4 3 6 6 7 8 7 6 5 4 6 6 9 8 6 6 5 4 3 3 3 2 3 3 2 1 1 2 2 2 2 2 2 2 1 1 1 1 1 1 1 1 1
7 5 4 5 6 6 8 5 5 4 4 4 4 6 5 5 5 5 5 3 3 2 3 3 3 2 1 1 2 2 2 2 2 3 3 3 2 2 1 1 1 1 1 1
5 3 4 6 6 5 4 3 4 5 5 6 6 6 7 5 6 6 5 5 3 3 3 4 4 3 2 3 2 2 2 1 2 2 2 2 1 1 1 1 2 1 1 2
7 4 2 3 2 3 1 2 4 5 3 6 7 7 6 4 6 6 5 4 3 3 3 4 4 4 3 3 2 2 1 1 2 2 2 2 2 1 1 1 2 2 1 1
5 5 3 1 1 2 2 1 1 2 4 7 4 5 5 1 4 5 5 4 3 3 3 3 4 3 3 3 2 2 1 1 1 2 1 1 2 2 2 2 2 2 1 1
4 4 5 4 3 3 5 5 4 4 4 3 2 6 2 4 6 6 6 5 4 3 3 3 3 3 3 2 2 2 1 1 1 1 1 1 2 1 1 1 2 2 2 2
4 4 0 2 1 2 3 5 3 3 4 4 5 4 2 3 5 4 4 4 3 3 3 3 3 3 3 2 2 2 1 1 0 1 1 1 2 1 1 1 1 1 1 1
3 5 3 2 2 4 3 3 1 3 3 5 5 5 3 4 3 3 2 2 3 3 3 4 4 3 3 3 2 2 2 1 0 0 1 1 1 1 1 1 1 1 1 1
4 4 3 2 6 6 4 3 4 3 3 3 4 2 2 3 3 3 2 2 3 3 3 3 3 3 3 3 2 2 2 2 1 1 1 1 1 1 1 1 1 1 1 1
2 2 4 6 5 3 3 4 4 3 5 4 3 3 2 4 4 3 2 3 3 3 4 4 3 3 3 3 3 2 2 2 1 2 1 1 1 0 1 1 1 1 1 1
2 2 3 3 2 1 2 3 3 4 3 4 5 4 2 4 4 3 3 3 3 3 4 4 3 3 3 3 3 2 2 2 2 2 2 1 1 0 0 0 0 1 1 1
3 4 6 7 4 2 4 5 5 4 4 6 7 6 4 3 2 3 3 3 3 3 4 3 3 3 3 3 3 3 3 3 2 2 2 1 1 1 1 0 0 0 1 1
2 5 7 10 9 7 7 7 7 8 8 7 7 6 6 3 1 1 1 2 3 3 3 3 3 3 3 3 3 3 3 2 2 2 2 1 1 1 1 1 1 1 1 0
3 5 6 9 8 7 8 8 8 9 9 9 8 7 4 3 3 2 2 2 2 3 3 3 3 3 3 3 3 3 3 2 2 2 2 2 2 1 1 1 1 1 1 1
4 4 4 6 5 6 7 5 6 5 3 3 5 5 4 4 3 2 1 1 1 2 2 2 2 2 2 2 2 2 2 2 2 2 2 2 2 1 1 1 1 0 0 0
6 6 4 4 4 7 3 2 0 2 0 2 2 4 4 4 3 2 2 3 3 2 2 2 2 2 2 2 2 2 2 2 2 2 2 2 2 1 1 1 1 1 0 0
6 6 4 3 5 5 1 3 2 2 2 3 4 5 6 6 3 3 6 5 4 3 3 2 2 2 2 2 2 2 2 2 2 2 2 2 2 2 1 1 1 1 1 1
3 4 4 4 4 3 2 5 6 1 1 6 6 5 5 5 2 2 5 5 5 5 4 3 3 2 2 3 3 2 2 2 2 2 2 2 2 1 2 2 2 1 1 1
1 3 5 6 5 2 4 6 4 1 3 6 5 5 4 2 2 3 4 5 5 4 4 4 4 3 3 3 3 2 3 3 3 3 3 2 2 2 2 2 2 1 1 1
1 2 2 2 3 3 5 4 3 2 3 4 5 4 3 3 4 4 4 4 5 5 5 4 4 3 3 3 3 3 3 3 3 2 2 2 2 2 2 2 2 2 1 1
1 1 1 1 1 2 4 3 3 3 4 4 4 5 4 4 4 4 4 4 5 5 5 4 3 3 4 4 4 3 4 3 3 3 3 3 3 3 2 2 2 2 1 1
2 3 1 1 0 1 3 3 4 5 5 5 4 4 4 4 4 4 4 4 4 4 4 4 4 4 4 5 4 4 4 4 3 3 3 3 3 3 3 2 2 2 2 1
3 2 2 2 2 2 3 4 5 5 5 5 5 5 4 4 3 3 3 3 3 4 4 4 4 4 5 5 5 5 5 5 3 3 3 3 3 3 3 3 2 2 2 2
2 2 2 3 3 3 3 4 4 4 4 4 4 4 4 4 3 3 3 3 3 4 4 4 5 5 5 5 5 6 6 5 4 3 3 3 3 3 2 2 3 5 3 4
Wind_Direction
195 219 221 220 222 259 283 276 274 272 235 237 252 261 255 231 222 227 227 218 201 189 152 120 114 112 108 111 124 142 146 155 147 145 151 141 139 130 90 94 109 117 128 136
215 234 240 251 251 256 267 271 270 280 231 261 270 270 257 230 218 217 218 206 176 145 124 114 105 97 105 133 145 145 156 152 147 139 139 143 146 140 132 90 95 118 128 135
229 243 240 246 250 253 256 257 267 279 302 262 276 281 244 220 211 201 194 182 163 150 140 129 123 111 91 111 154 152 149 148 140 131 129 132 136 135 126 139 156 160 142 133
249 247 252 252 247 245 258 264 274 272 272 257 219 281 253 203 205 198 190 172 160 140 136 139 131 120 120 114 107 108 117 131 147 148 150 163 168 172 178 168 160 159 157 152
252 237 237 240 246 248 268 311 284 265 257 271 245 251 273 184 205 204 182 167 151 134 138 138 133 133 114 96 92 99 99 112 126 142 151 160 182 181 160 159 159 172 180 174
257 261 245 254 278 248 280 310 279 256 241 254 229 217 269 212 202 176 165 153 137 129 123 119 115 108 97 92 92 95 116 129 128 139 154 176 186 172 170 163 167 178 181 188
259 229 205 210 227 205 226 204 259 237 216 238 209 210 243 156 103 122 130 126 118 117 111 106 104 97 102 108 112 125 121 123 135 137 161 195 183 180 193 182 181 181 182 199
253 250 186 190 211 214 221 216 203 223 233 265 242 229 226 84 77 80 90 103 107 98 98 106 112 111 106 113 115 117 132 134 138 139 154 192 172 178 193 194 191 193 196 202
270 264 124 213 246 233 222 232 272 284 281 266 244 222 120 83 77 80 83 88 103 96 82 89 96 103 106 107 101 100 104 110 135 140 148 186 177 175 186 184 199 198 195 204
298 277 258 247 247 238 251 274 232 214 234 247 250 240 220 159 142 112 89 74 88 89 83 79 71 71 88 95 86 68 63 61 51 186 185 175 183 187 192 179 193 206 202 199
291 263 261 248 218 218 208 224 229 232 239 246 266 271 26 114 120 120 109 90 93 101 97 86 74 65 65 74 83 78 58 49 22 358 171 142 149 185 184 176 182 196 202 192
285 272 256 252 263 278 225 220 215 224 245 239 257 267 45 75 80 81 87 89 86 91 100 93 80 65 64 55 53 58 51 49 24 10 34 125 128 132 175 173 192 203 194 181
312 261 279 279 265 323 282 261 267 273 266 246 242 254 59 51 50 44 54 79 85 88 89 84 74 60 58 48 41 39 38 43 31 28 28 38 55 36 237 195 205 202 175 159
289 249 235 245 273 269 277 272 263 248 242 255 246 260 286 328 19 29 30 45 68 75 82 76 60 52 45 40 28 25 26 28 20 25 34 21 358 342 333 340 34 138 156 149
272 257 265 276 280 270 261 255 244 239 240 246 266 272 286 311 358 36 49 55 66 72 70 69 54 41 32 30 22 14 17 16 11 14 13 357 350 360 359 3 17 34 37 55
277 267 281 276 268 264 265 260 248 245 248 256 270 278 315 9 26 37 47 46 62 75 63 58 48 36 26 19 12 4 1 0 1 359 355 355 359 9 6 2 26 38 27 5
262 267 273 266 273 280 255 242 239 241 243 254 265 287 341 358 356 0 359 13 73 64 53 46 41 25 11 2 358 348 340 349 2 352 349 353 356 6 0 344 2 15 329 338
247 260 255 268 277 241 238 51 102 215 37 9 357 357 352 335 328 10 18 24 45 41 43 39 25 12 6 2 357 351 348 354 356 350 346 354 3 348 333 330 322 305 282 253
230 233 246 250 256 257 311 1 344 243 244 15 345 348 352 351 7 38 24 23 27 28 34 32 21 20 14 4 2 358 352 352 355 352 350 354 348 335 320 303 288 289 273 273
236 230 238 245 250 254 346 340 326 294 219 7 357 350 354 8 1 341 6 14 23 24 26 22 18 26 25 10 8 1 354 350 346 347 346 344 338 332 313 298 294 291 272 255
241 233 233 245 249 264 343 336 358 82 311 347 354 354 359 349 316 340 6 17 27 25 18 14 18 24 18 9 3 356 355 346 346 354 351 348 346 340 324 305 303 290 282 284
226 242 240 249 251 269 4 29 49 337 345 356 354 357 4 356 5 19 18 17 23 22 15 12 18 17 12 7 5 3 351 345 351 355 354 351 349 345 341 330 323 316 299 289
225 248 257 221 223 17 37 42 9 355 357 3 2 360 12 15 15 17 19 20 20 20 11 8 15 16 12 11 14 7 346 347 350 357 357 356 355 353 351 350 342 329 328 310
341 337 310 298 32 22 23 15 15 14 13 12 15 11 18 17 20 23 21 19 17 17 14 9 13 17 13 11 9 359 350 349 353 359 356 354 358 355 356 354 351 341 332 312
312 326 304 283 323 346 21 12 4 4 10 17 19 17 19 21 21 25 18 17 15 13 12 15 18 18 11 8 8 2 358 357 359 1 355 353 356 354 355 0 357 343 340 312
334 319 297 287 331 326 326 347 356 0 2 9 12 8 15 17 19 22 19 18 20 15 14 16 15 12 5 5 5 2 358 360 2 0 358 352 351 351 349 346 351 6 352 351